Погода в Суровикино

Россия / Волгоградская область     48°36′19″N   42°50′39″E
темп.,
°C
ветер,
м/с
пор.,
м/с
влажн.,
%
обл.,
%
осадки,
мм/ч
давл.,
гПа
погр.,
м
18 апреля, вс
вс1800:00+8з34715 0.0 102165
03:00+7ссз33755 0.0 102145
06:00+7ссв227395 0.0 102026
09:00+12св015591 0.0 1020421
12:00+15ююз234476 0.0 10191905
15:00+16ю223886 0.0 10182026
18:00+14ю4556100 0.0 1018232
21:00+12ю2377100 0.1 1018141
19 апреля, пн
пн1900:00+11зсз0179100 0.3 101895
03:00+11с1282100 0.3 1017108
06:00+10ссв2585100 0.1 1017314
09:00+12св447225 0.1 1017640
12:00+14ссв2265100 0.1 10161166
15:00+14ссв2166100 0.1 1015688
18:00+14св2366100 0.0 1015163
21:00+12всв3586100 0.1 1016143
20 апреля, вт
вт2000:00+11всв469278 0.0 1015202
03:00+11в4797100 0.0 1013270
06:00+11в61196100 0.1 1012483
09:00+11в61395100 0.7 1011535
12:00+12в101794100 6.4 1009714
15:00+14вюв122090100 6.8 10071117
18:00+15вюв12208026 0.1 10061199
21:00+14ююв9168398 1.1 1009960
21 апреля, ср
ср2100:00+13ююв81587100 0.2 1010430
03:00+10ююз6147999 0.2 1012584
06:00+10ю71279100 0.1 1013871
09:00+10ююз8127899 0.1 1015993
12:00+13юз677197 0.4 10171180
15:00+14юз4561100 0.7 10181236
18:00+13юз477084 0.4 1019352
21:00+11ююз377922 0.7 1021166
22 апреля, чт
чт2200:00+9юз35864 0.0 102292
03:00+7юз33761 0.0 102339
06:00+7зюз23795 0.0 102461
09:00+12зсз22604 0.0 1025476
12:00+16ссз11455 0.0 10251705
15:00+17с113895 0.0 10242146
18:00+15юв3352100 0.0 102488
21:00+14ссв1154100 0.0 102518